EW4725 Weather Reports


time (UTC)temp
F
wind
direction
speed
knots
gust
knots
rain 1hr
in
rain 24hr
in
rain mn
in
humidity
%
barometer
mb
20260831033917 73 260 3.5 4.3 0.00 0.00 0.00 69 1010.8
20260831033417 73 283 4.3 6.1 0.00 0.00 0.00 69 1010.6
20260831032935 73 305 3.5 7.0 0.00 0.00 0.00 69 1010.6
20260831032417 73 305 3.5 6.1 0.00 0.00 0.00 69 1010.5
20260831031917 73 283 4.3 6.1 0.00 0.00 0.00 69 1010.4
20260831031437 74 305 3.5 6.1 0.00 0.00 0.00 70 1010.4
20260831030917 74 283 1.7 3.5 0.00 0.00 0.00 71 1010.3
20260831030417 74 283 4.3 6.1 0.00 0.00 0.00 71 1010.3
20260831025958 74 260 1.7 4.3 0.00 0.00 0.00 71 1010.3
20260831025437 74 260 3.5 4.3 0.00 0.00 0.00 71 1010.2
20260831024917 74 283 3.5 6.1 0.00 0.00 0.00 70 1010.2
20260831024437 74 260 7.0 9.6 0.00 0.00 0.00 70 1010.2
20260831023917 74 283 4.3 5.2 0.00 0.00 0.00 71 1010.3
20260831023417 74 283 4.3 6.1 0.00 0.00 0.00 72 1010.2
20260831022917 74 305 4.3 6.1 0.00 0.00 0.00 72 1010.2
20260831022415 74 283 5.2 7.0 0.00 0.00 0.00 72 1010.0
20260831021937 74 283 5.2 7.8 0.00 0.00 0.00 73 1010.0
20260831021417 75 260 3.5 5.2 0.00 0.00 0.00 75 1010.1
20260831020917 75 283 3.5 5.2 0.00 0.00 0.00 75 1010.1
20260831020417 75 283 7.8 9.6 0.00 0.00 0.00 75 1010.1
20260831015917 75 260 6.1 8.7 0.00 0.00 0.00 75 1010.1
20260831015417 76 283 7.0 10.4 0.00 0.00 0.00 75 1010.1
20260831014917 76 260 5.2 7.0 0.00 0.00 0.00 74 1010.0
20260831014417 77 260 4.3 6.1 0.00 0.00 0.00 75 1010.0
20260831013917 77 260 6.1 7.8 0.00 0.00 0.00 74 1010.1
20260831013417 77 260 3.5 4.3 0.00 0.00 0.00 74 1010.0
20260831012917 78 283 7.8 9.6 0.00 0.00 0.00 73 1010.0
20260831012437 78 260 7.0 11.3 0.00 0.00 0.00 72 1010.0
20260831011917 78 283 5.2 7.8 0.00 0.00 0.00 72 1010.0
20260831011417 79 283 5.2 7.8 0.00 0.00 0.00 72 1010.0
20260831010917 79 283 6.1 7.8 0.00 0.00 0.00 72 1009.9
20260831010437 79 260 4.3 7.0 0.00 0.00 0.00 72 1009.9
20260831005917 80 283 7.8 11.3 0.00 0.00 0.00 70 1009.9
20260831005416 80 283 3.5 7.8 0.00 0.00 0.00 70 1009.9
20260831004917 80 283 5.2 7.0 0.00 0.00 0.00 70 1009.9
20260831004417 81 260 6.1 7.8 0.00 0.00 0.00 68 1009.9
20260831003917 82 305 7.0 10.4 0.00 0.00 0.00 68 1009.9
20260831003417 82 260 5.2 9.6 0.00 0.00 0.00 67 1009.9
20260831002916 83 283 4.3 7.0 0.00 0.00 0.00 66 1009.9
20260831002437 83 260 6.1 8.7 0.00 0.00 0.00 63 1009.9
20260831001917 84 260 3.5 5.2 0.00 0.00 0.00 64 1009.8
20260831001417 84 260 7.0 9.6 0.00 0.00 0.00 62 1009.9
20260831000936 84 283 5.2 6.1 0.00 0.00 0.00 62 1009.8
20260831000417 85 283 5.2 7.0 0.00 0.00 0.00 62 1009.7
20260830235917 85 260 3.5 7.0 0.00 0.00 0.00 60 1009.7
20260830235416 85 260 4.3 6.1 0.00 0.00 0.00 60 1009.7
20260830234916 86 260 5.2 7.0 0.00 0.00 0.00 59 1009.7
20260830234416 86 283 5.2 7.8 0.00 0.00 0.00 58 1009.7
20260830233917 87 305 3.5 5.2 0.00 0.00 0.00 55 1009.7
20260830233436 87 283 4.3 7.0 0.00 0.00 0.00 56 1009.7
20260830232917 87 283 3.5 6.1 0.00 0.00 0.00 56 1009.8
20260830232417 87 215 0.9 2.6 0.00 0.00 0.00 54 1009.9
20260830231917 87 283 3.5 5.2 0.00 0.00 0.00 56 1009.9
20260830231417 87 238 4.3 6.1 0.00 0.00 0.00 56 1009.9
20260830230917 87 238 3.5 6.1 0.00 0.00 0.00 56 1010.0
20260830230416 86 260 2.6 4.3 0.00 0.00 0.00 55 1010.0
20260830225916 87 148 3.5 4.3 0.00 0.00 0.00 54 1010.0
20260830225417 87 260 3.5 6.1 0.00 0.00 0.00 55 1010.0
20260830224916 86 148 2.6 3.5 0.00 0.00 0.00 56 1010.0
20260830224417 86 103 2.6 4.3 0.00 0.00 0.00 57 1010.1
20260830223916 86 148 4.3 6.1 0.00 0.00 0.00 56 1010.2
20260830223416 87 148 5.2 7.0 0.00 0.00 0.00 55 1010.2
20260830222917 88 148 4.3 6.1 0.00 0.00 0.00 54 1010.2
20260830222416 87 148 2.6 4.3 0.00 0.00 0.00 55 1010.3
20260830221916 87 148 6.1 11.3 0.00 0.00 0.00 55 1010.4
20260830221417 87 170 1.7 4.3 0.00 0.00 0.00 55 1010.4
20260830220917 88 125 0.9 2.6 0.00 0.00 0.00 55 1010.4
20260830220416 87 148 2.6 5.2 0.00 0.00 0.00 56 1010.5
20260830215937 87 170 0.9 2.6 0.00 0.00 0.00 58 1010.6
20260830215456 87 148 3.5 6.1 0.00 0.00 0.00 56 1010.7
20260830214917 87 148 1.7 3.5 0.00 0.00 0.00 57 1010.7
20260830214436 87 148 2.6 5.2 0.00 0.00 0.00 57 1010.8
20260830213916 86 148 2.6 6.1 0.00 0.00 0.00 58 1010.8
20260830213437 86 170 3.5 5.2 0.00 0.00 0.00 58 1010.9
20260830212917 86 148 2.6 3.5 0.00 0.00 0.00 58 1011.0
20260830212417 86 148 3.5 5.2 0.00 0.00 0.00 60 1011.1
20260830211916 85 238 2.6 4.3 0.00 0.00 0.00 61 1011.3
20260830211437 85 148 3.5 7.0 0.00 0.00 0.00 61 1011.2
20260830210916 86 125 6.1 7.8 0.00 0.00 0.00 57 1011.3
20260830210416 86 215 2.6 3.5 0.00 0.00 0.00 60 1011.4
20260830205916 86 148 4.3 6.1 0.00 0.00 0.00 59 1011.4
20260830205416 86 170 3.5 7.8 0.00 0.00 0.00 59 1011.5
20260830204957 86 215 5.2 7.8 0.00 0.00 0.00 57 1011.5
20260830204416 86 148 3.5 6.1 0.00 0.00 0.00 56 1011.5
20260830203916 86 170 1.7 5.2 0.00 0.00 0.00 56 1011.5
20260830203417 86 148 4.3 6.1 0.00 0.00 0.00 53 1011.5
20260830202916 87 215 4.3 5.2 0.00 0.00 0.00 54 1011.6
20260830202416 86 260 2.6 6.1 0.00 0.00 0.00 53 1011.7
20260830201916 87 148 2.6 5.2 0.00 0.00 0.00 53 1011.6
20260830201416 87 148 2.6 4.3 0.00 0.00 0.00 54 1011.5
20260830200916 86 193 2.6 5.2 0.00 0.00 0.00 55 1011.5
20260830200416 86 148 4.3 7.0 0.00 0.00 0.00 55 1011.5
20260830195917 86 215 1.7 3.5 0.00 0.00 0.00 57 1011.6
20260830195416 86 170 3.5 5.2 0.00 0.00 0.00 57 1011.6
20260830194936 86 170 4.3 10.4 0.00 0.00 0.00 56 1011.6
20260830194416 86 238 1.7 5.2 0.00 0.00 0.00 55 1011.5
20260830193917 86 193 2.6 4.3 0.00 0.00 0.00 56 1011.6
20260830193416 85 215 3.5 5.2 0.00 0.00 0.00 56 1011.7
20260830192916 85 148 1.7 5.2 0.00 0.00 0.00 59 1011.7
20260830192416 85 238 2.6 6.1 0.00 0.00 0.00 59 1011.7
20260830191916 85 148 2.6 5.2 0.00 0.00 0.00 60 1011.8
20260830191416 85 260 4.3 6.1 0.00 0.00 0.00 60 1011.9
20260830190936 85 215 2.6 5.2 0.00 0.00 0.00 61 1011.8
20260830190416 85 238 4.3 7.0 0.00 0.00 0.00 61 1011.8
20260830185916 85 260 2.6 4.3 0.00 0.00 0.00 61 1011.9
20260830185416 86 215 3.5 5.2 0.00 0.00 0.00 60 1012.0
20260830184936 86 170 2.6 5.2 0.00 0.00 0.00 59 1012.0
20260830184416 85 125 1.7 2.6 0.00 0.00 0.00 60 1011.9
20260830183916 85 148 2.6 4.3 0.00 0.00 0.00 61 1012.0
20260830183416 85 260 1.7 4.3 0.00 0.00 0.00 62 1012.0
20260830182916 85 260 0.9 1.7 0.00 0.00 0.00 62 1012.0
20260830182416 84 170 1.7 5.2 0.00 0.00 0.00 64 1012.0
20260830181916 83 148 4.3 7.0 0.00 0.00 0.00 63 1012.0
20260830181416 84 283 2.6 4.3 0.00 0.00 0.00 63 1012.0
20260830180956 83 148 1.7 4.3 0.00 0.00 0.00 65 1012.0
20260830180416 84 193 3.5 5.2 0.00 0.00 0.00 65 1011.9
20260830175916 83 148 2.6 4.3 0.00 0.00 0.00 66 1012.0
20260830175416 83 148 0.9 2.6 0.00 0.00 0.00 67 1012.0
20260830174916 83 260 1.7 2.6 0.00 0.00 0.00 66 1011.9
20260830174416 83 215 4.3 5.2 0.00 0.00 0.00 66 1012.0
20260830173936 83 148 5.2 7.0 0.00 0.00 0.00 66 1012.0
20260830173416 83 125 0.9 3.5 0.00 0.00 0.00 66 1012.0
20260830172916 83 58 0.9 1.7 0.00 0.00 0.00 67 1012.0
20260830172416 83 148 3.5 6.1 0.00 0.00 0.00 65 1011.9
20260830171916 83 0.0 0.9 0.00 0.00 0.00 65 1011.9
20260830171416 83 283 1.7 3.5 0.00 0.00 0.00 63 1011.9
20260830170956 83 170 1.7 3.5 0.00 0.00 0.00 65 1011.9
20260830170416 82 238 1.7 2.6 0.00 0.00 0.00 65 1011.9
20260830165916 82 0.0 0.9 0.00 0.00 0.00 66 1011.8
20260830165416 82 125 0.9 1.7 0.00 0.00 0.00 66 1011.9
20260830164916 82 0.0 0.9 0.00 0.00 0.00 67 1011.9
20260830164416 81 0.0 0.9 0.00 0.00 0.00 67 1012.0
20260830163916 81 148 0.9 2.6 0.00 0.00 0.00 69 1012.0
20260830163416 81 125 0.9 1.7 0.00 0.00 0.00 69 1011.9
20260830162916 80 0.0 0.0 0.00 0.00 0.00 70 1011.9
20260830162436 81 148 2.6 3.5 0.00 0.00 0.00 68 1011.9
20260830161916 81 0.0 0.9 0.00 0.00 0.00 68 1011.9
20260830161416 80 0.0 0.9 0.00 0.00 0.00 71 1011.8
20260830160916 79 0.0 1.7 0.00 0.00 0.00 72 1011.8
20260830160416 79 58 0.9 0.9 0.00 0.00 0.00 73 1011.9
20260830155916 79 80 2.6 3.5 0.00 0.00 0.00 72 1011.9
20260830155416 79 0.0 0.0 0.00 0.00 0.00 74 1011.9
20260830154916 78 148 1.7 2.6 0.00 0.00 0.00 73 1011.9
20260830154416 78 148 1.7 2.6 0.00 0.00 0.00 74 1012.0
20260830153916 78 148 0.9 1.7 0.00 0.00 0.00 74 1012.0
20260830153416 77 0.0 0.9 0.00 0.00 0.00 75 1012.0
20260830152956 77 148 0.9 1.7 0.00 0.00 0.00 76 1012.0
20260830152416 77 80 0.9 1.7 0.00 0.00 0.00 76 1012.0
20260830151916 77 148 0.9 2.6 0.00 0.00 0.00 78 1012.0
20260830151416 76 0.0 0.0 0.00 0.00 0.00 79 1012.0
20260830150956 75 125 0.9 1.7 0.00 0.00 0.00 79 1012.0
20260830150416 75 103 0.9 0.9 0.00 0.00 0.00 79 1012.1
20260830150056 75 125 1.7 3.5 0.00 0.00 0.00 80 1012.0
20260830145416 75 103 0.9 1.7 0.00 0.00 0.00 81 1011.9
20260830144916 74 148 1.7 2.6 0.00 0.00 0.00 82 1011.9
20260830144416 73 0.0 0.9 0.00 0.00 0.00 83 1012.0
20260830143935 73 103 0.9 1.7 0.00 0.00 0.00 84 1011.9
20260830143416 73 103 1.7 2.6 0.00 0.00 0.00 84 1011.9
20260830142916 72 103 0.9 1.7 0.00 0.00 0.00 85 1011.8
20260830142416 72 80 0.9 1.7 0.00 0.00 0.00 85 1011.8
20260830141915 72 80 0.9 1.7 0.00 0.00 0.00 86 1011.7
20260830141416 72 103 0.9 1.7 0.00 0.00 0.00 86 1011.7
20260830140916 71 125 1.7 2.6 0.00 0.00 0.00 86 1011.6
20260830140436 71 148 1.7 2.6 0.00 0.00 0.00 86 1011.6
20260830135915 71 0.0 1.7 0.00 0.00 0.00 86 1011.6
20260830135416 71 125 0.9 1.7 0.00 0.00 0.00 86 1011.6
20260830134915 71 125 0.9 2.6 0.00 0.00 0.00 86 1011.5
20260830134415 71 125 0.9 1.7 0.00 0.00 0.00 86 1011.6
20260830133915 71 0.0 0.0 0.00 0.00 0.00 86 1011.5
20260830133416 71 125 0.9 1.7 0.00 0.00 0.00 87 1011.3
20260830132916 71 0.0 0.0 0.00 0.00 0.00 86 1011.3
20260830132416 71 125 1.7 2.6 0.00 0.00 0.00 87 1011.2
20260830131915 71 125 0.9 1.7 0.00 0.00 0.00 87 1011.1
20260830131415 71 0.0 0.9 0.00 0.00 0.00 87 1011.2
20260830130915 71 0.0 0.9 0.00 0.00 0.00 87 1011.1
20260830130415 71 0.0 0.9 0.00 0.00 0.00 87 1011.1
20260830125935 71 0.0 1.7 0.00 0.00 0.00 87 1011.1
20260830125436 71 103 0.9 0.9 0.00 0.00 0.00 87 1011.1
20260830124915 71 0.0 0.0 0.00 0.00 0.00 87 1011.0
20260830124415 71 0.0 0.0 0.00 0.00 0.00 87 1011.0
20260830123915 71 0.0 0.9 0.00 0.00 0.00 87 1011.0
20260830123436 71 125 0.9 1.7 0.00 0.00 0.00 87 1010.9
20260830122915 71 0.0 0.0 0.00 0.00 0.00 87 1011.0
20260830122416 71 0.0 1.7 0.00 0.00 0.00 87 1011.0
20260830121915 71 0.0 0.0 0.00 0.00 0.00 87 1010.9
20260830121416 71 0.0 0.0 0.00 0.00 0.00 87 1010.8
20260830120915 71 0.0 0.0 0.00 0.00 0.00 87 1010.7
20260830120415 71 0.0 0.0 0.00 0.00 0.00 87 1010.7
20260830115915 71 0.0 0.0 0.00 0.00 0.00 87 1010.8
20260830115416 71 0.0 0.0 0.00 0.00 0.00 87 1010.8
20260830114915 71 0.0 0.0 0.00 0.00 0.00 87 1010.7
20260830114415 71 0.0 0.0 0.00 0.00 0.00 86 1010.7
20260830113915 72 0.0 0.0 0.00 0.00 0.00 86 1010.7
20260830113415 72 0.0 0.0 0.00 0.00 0.00 86 1010.7
20260830112955 72 0.0 0.0 0.00 0.00 0.00 86 1010.6
20260830112416 72 0.0 0.9 0.00 0.00 0.00 86 1010.6
20260830111915 72 0.0 0.9 0.00 0.00 0.00 86 1010.7
20260830111415 72 0.0 0.0 0.00 0.00 0.00 85 1010.6
20260830110915 72 0.0 0.0 0.00 0.00 0.00 85 1010.7
20260830110415 72 0.0 0.9 0.00 0.00 0.00 85 1010.6
20260830105915 72 103 0.9 1.7 0.00 0.00 0.00 85 1010.6
20260830105435 72 0.0 0.0 0.00 0.00 0.00 85 1010.7
20260830104915 72 0.0 0.0 0.00 0.00 0.00 85 1010.7
20260830104415 72 0.0 0.9 0.00 0.00 0.00 85 1010.7
20260830103915 72 0.0 0.0 0.00 0.00 0.00 85 1010.6
20260830103415 72 0.0 0.0 0.00 0.00 0.00 86 1010.6
20260830102915 72 0.0 0.9 0.00 0.00 0.00 86 1010.5
20260830102415 72 0.0 0.0 0.00 0.00 0.00 87 1010.6
20260830101915 71 0.0 0.0 0.00 0.00 0.00 86 1010.6
20260830101415 71 0.0 0.0 0.00 0.00 0.00 86 1010.6
20260830100915 71 0.0 0.0 0.00 0.00 0.00 85 1010.6
20260830100415 72 0.0 0.0 0.00 0.00 0.00 85 1010.7
20260830095915 72 0.0 0.0 0.00 0.00 0.00 85 1010.7
20260830095415 72 0.0 0.0 0.00 0.00 0.00 85 1010.6
20260830094915 72 0.0 0.0 0.00 0.00 0.00 85 1010.5
20260830094435 72 0.0 0.0 0.00 0.00 0.00 85 1010.4
20260830093915 72 0.0 0.0 0.00 0.00 0.00 85 1010.5
20260830093415 72 0.0 0.0 0.00 0.00 0.00 85 1010.5
20260830092915 72 0.0 0.9 0.00 0.00 0.00 84 1010.4
20260830092415 73 0.0 0.9 0.00 0.00 0.00 84 1010.4
20260830091917 73 0.0 0.9 0.00 0.00 0.00 84 1010.4
20260830091417 73 125 0.9 1.7 0.00 0.00 0.00 84 1010.4
20260830090917 73 0.0 0.9 0.00 0.00 0.00 83 1010.4
20260830090415 73 0.0 0.9 0.00 0.00 0.00 83 1010.5
20260830085917 73 0.0 0.9 0.00 0.00 0.00 83 1010.5
20260830085417 73 125 1.7 1.7 0.00 0.00 0.00 82 1010.6
20260830084917 73 0.0 3.5 0.00 0.00 0.00 82 1010.6
20260830084415 73 0.0 1.7 0.00 0.00 0.00 81 1010.5
20260830083917 73 0.0 0.9 0.00 0.00 0.00 80 1010.5
20260830083417 73 0.0 0.9 0.00 0.00 0.00 79 1010.6
20260830082917 73 103 0.9 1.7 0.00 0.00 0.00 78 1010.7
20260830082417 73 0.0 0.0 0.00 0.00 0.00 77 1010.7
20260830081917 73 0.0 0.0 0.00 0.00 0.00 78 1010.8
20260830081417 72 125 0.9 0.9 0.00 0.00 0.00 79 1010.7
20260830080917 72 0.0 0.0 0.00 0.00 0.00 80 1010.8
20260830080417 72 0.0 0.0 0.00 0.00 0.00 82 1010.9
20260830075917 72 0.0 0.9 0.00 0.00 0.00 83 1010.8
20260830075417 72 0.0 0.0 0.00 0.00 0.00 83 1010.8
20260830074917 72 0.0 0.0 0.00 0.00 0.00 82 1010.8
20260830074437 72 0.0 0.0 0.00 0.00 0.00 81 1010.7
20260830073917 72 0.0 0.0 0.00 0.00 0.00 81 1010.7
20260830073417 72 0.0 0.0 0.00 0.00 0.00 79 1010.7
20260830072917 72 0.0 0.0 0.00 0.00 0.00 80 1010.7
20260830072457 72 0.0 0.0 0.00 0.00 0.00 79 1010.7
20260830071917 72 0.0 0.0 0.00 0.00 0.00 79 1010.6
20260830071457 72 0.0 0.0 0.00 0.00 0.00 77 1010.7
20260830070917 72 0.0 0.0 0.00 0.00 0.00 77 1010.6
20260830070417 72 0.0 0.0 0.00 0.00 0.00 77 1010.6
20260830065935 72 0.0 0.0 0.00 0.00 0.00 77 1010.6
20260830065415 72 0.0 0.0 0.00 0.00 0.00 77 1010.4
20260830064916 72 0.0 0.0 0.00 0.00 0.00 77 1010.5
20260830064415 72 0.0 0.0 0.00 0.00 0.00 77 1010.5
20260830063915 72 0.0 0.0 0.00 0.00 0.00 76 1010.5
20260830063435 72 0.0 0.0 0.00 0.00 0.00 76 1010.4
20260830062916 72 0.0 0.0 0.00 0.00 0.00 76 1010.4
20260830062415 73 0.0 0.0 0.00 0.00 0.00 76 1010.4
20260830061915 73 0.0 0.0 0.00 0.00 0.00 75 1010.4
20260830061415 73 0.0 0.0 0.00 0.00 0.00 75 1010.3
20260830060915 73 0.0 0.0 0.00 0.00 0.00 75 1010.3
20260830060415 73 283 0.9 1.7 0.00 0.00 0.00 75 1010.3
20260830055915 73 0.0 0.0 0.00 0.00 0.00 74 1010.4
20260830055416 73 0.0 0.0 0.00 0.00 0.00 74 1010.4
20260830054915 74 0.0 0.0 0.00 0.00 0.00 74 1010.5
20260830054415 74 283 0.9 0.9 0.00 0.00 0.00 74 1010.5
20260830053915 74 305 1.7 1.7 0.00 0.00 0.00 74 1010.4
20260830053415 74 260 0.9 1.7 0.00 0.00 0.00 74 1010.3
20260830052915 74 283 0.9 2.6 0.00 0.00 0.00 74 1010.3
20260830052415 74 283 0.9 1.7 0.00 0.00 0.00 74 1010.4
20260830051915 74 0.0 0.9 0.00 0.00 0.00 74 1010.4
20260830051415 74 0.0 0.9 0.00 0.00 0.00 74 1010.3
20260830050935 74 0.0 0.0 0.00 0.00 0.00 74 1010.3
20260830050415 74 0.0 0.0 0.00 0.00 0.00 74 1010.4
20260830045915 75 0.0 0.9 0.00 0.00 0.00 74 1010.3
20260830045415 75 283 0.9 1.7 0.00 0.00 0.00 74 1010.4
20260830044935 75 260 1.7 2.6 0.00 0.00 0.00 74 1010.4
20260830044415 75 283 2.6 3.5 0.00 0.00 0.00 73 1010.5
20260830043915 75 0.0 0.9 0.00 0.00 0.00 74 1010.4
20260830043417 75 283 0.9 2.6 0.00 0.00 0.00 74 1010.4
20260830042937 75 260 2.6 2.6 0.00 0.00 0.00 74 1010.3
20260830042437 75 260 4.3 6.1 0.00 0.00 0.00 75 1010.2
20260830041915 75 283 3.5 5.2 0.00 0.00 0.00 76 1010.2
20260830041417 75 283 2.6 4.3 0.00 0.00 0.00 77 1010.3
20260830040917 75 283 1.7 2.6 0.00 0.00 0.00 78 1010.2
20260830040417 75 260 2.6 3.5 0.00 0.00 0.00 79 1010.2
20260830035917 75 283 2.6 3.5 0.00 0.00 0.00 79 1010.2
20260830035415 75 283 1.7 2.6 0.00 0.00 0.00 79 1010.1
20260830034917 75 283 0.9 1.7 0.00 0.00 0.00 79 1010.1
20260830034417 75 283 0.9 1.7 0.00 0.00 0.00 79 1010.0